STARLINK-35261 (65595 NORAD) Tracking and Keplerian Element Data

This shows tracking and keplerian element data for the satellite.

Feedback or suggestion? Click here.




ElementValue
Catalog65595
NameSTARLINK-35261
Epoch Orbit584
Epoch Day354.25003472
Epoch Year2025
RAAN60.3074
Inclination97.6048
Eccentricity0.0001592
Argument of Perigee98.6816
Mean Anonmoly277.8733
Mean Motion15.26989271
Decay Rate-0.02538875
L11 65595U 25207D 25354.25003472 -.02538875 00000+0 -10694+0 0 9996
L22 65595 97.6048 60.3074 0001592 98.6816 277.8733 15.26989271 5845



Live tracking and technical data element details for STARLINK-35261 (NORAD 65595). STARLINK-35261 can be tracked NOW for your location showing map with azimuth and elevation plus other details from your city location.







IsCatalogInMostPopularTable: catalog: 65595, numindb: 4
Update: records affected: 1



GetName: 65595 STARLINK-35261

Hit Count: updated at: Sun, 08 Feb 2026 18:11:19 GMT